Forside
METAR-TAF:

METAR-TAF

Lufthavne :

Menominee-Marinette Twin County Airport

Menominee, Michigan, USA

Breddekreds: 45-08N, længdekreds: 087-38W, højde: 191 m

Aktuelle vejr

Denne rapport blev lavet for 1 time og 5 minutter siden, kl. 01:56 UTC
Vind 5 kt fra syd
Temperatur 18°C
Fugtighed 88%
Tryk 1012 hPa
Sigt: 16.1 km
skyfri

METAR: KMNM 250156Z AUTO 18005KT 10SM CLR 18/16 A2989 RMK AO2 SLP122 T01830161 $

Tid: 23:01 (03:01 UTC)


TAF: fraværende

Vejrobservationer og prognoser fra mere end 4000 lufthavne (METAR og TAF).

De gule og røde prikker repræsenterer de meteorologiske stationer.

Flyt musen over at se navnet på stationen.

Så klik over at se vejr observationer og prognoser.

At skifte det kort: Klik på de grønne knapper med et sort kors for at zoome ind; på den grønne knap med en bindestreg for at zoome ud; eller på de grønne pile for tilstødende kort.


METAR-TAF: